CW4185 Weather Reports


Display with metric or nautical units.
time (UTC)temp
F
wind
direction
speed
MPH
gust
MPH
rain 1hr
in
rain 24hr
in
rain mn
in
humidity
%
barometer
mb
20260905052646 80 185 2.0 3.0 0.00 0.00 0.00 93 1012.9
20260905052147 80 188 2.0 3.0 0.00 0.00 0.00 93 1012.5
20260905051646 80 193 2.0 2.0 0.00 0.00 0.00 93 1012.9
20260905051146 80 160 2.0 3.0 0.00 0.00 0.00 94 1012.9
20260905050202 80 207 2.0 3.0 0.00 0.00 0.00 92 1012.9
20260905045646 80 208 2.0 3.0 0.00 0.00 0.36 92 1012.9
20260905045147 80 201 1.0 3.0 0.00 0.00 0.36 92 1012.9
20260905044646 80 225 0.0 3.0 0.00 0.00 0.36 92 1012.5
20260905044147 80 221 1.0 2.0 0.00 0.00 0.36 92 1012.9
20260905043646 80 223 1.0 3.0 0.00 0.00 0.36 92 1012.5
20260905043146 80 198 3.0 3.0 0.00 0.00 0.36 92 1012.5
20260905042647 81 214 1.0 2.0 0.00 0.00 0.36 91 1012.5
20260905042146 81 241 2.0 3.0 0.00 0.00 0.36 91 1012.5
20260905041646 81 190 1.0 2.0 0.00 0.00 0.36 91 1012.9
20260905041147 81 174 0.0 3.0 0.00 0.00 0.36 90 1012.9
20260905040646 81 125 0.0 2.0 0.00 0.00 0.36 90 1012.9
20260905040146 82 39 1.0 3.0 0.00 0.00 0.36 89 1012.9
20260905035646 82 360 0.0 3.0 0.00 0.00 0.36 88 1012.9
20260905035147 82 129 0.0 1.0 0.00 0.00 0.36 88 1012.9
20260905034647 81 154 0.0 0.0 0.00 0.00 0.36 88 1012.9
20260905034146 81 151 1.0 2.0 0.00 0.00 0.36 88 1013.2
20260905033646 81 176 2.0 2.0 0.00 0.00 0.36 88 1013.2
20260905033148 82 171 1.0 2.0 0.00 0.00 0.36 88 1012.9
20260905032647 82 149 0.0 3.0 0.00 0.00 0.36 88 1012.9
20260905032146 81 189 2.0 3.0 0.00 0.00 0.36 88 1012.9
20260905031646 82 180 3.0 4.0 0.00 0.00 0.36 87 1013.2
20260905031147 82 164 1.0 5.0 0.00 0.00 0.36 87 1013.5
20260905030646 82 174 5.0 6.0 0.00 0.00 0.36 87 1013.5
20260905030147 82 209 2.0 3.0 0.00 0.00 0.36 88 1013.5
20260905025647 82 194 2.0 3.0 0.00 0.00 0.36 87 1013.5
20260905025146 82 176 2.0 3.0 0.00 0.00 0.36 87 1013.5
20260905024646 82 174 3.0 3.0 0.00 0.00 0.36 87 1013.5
20260905024147 82 165 2.0 3.0 0.00 0.00 0.36 88 1013.5
20260905023647 82 180 2.0 3.0 0.00 0.00 0.36 88 1013.5
20260905023146 82 175 1.0 4.0 0.00 0.00 0.36 87 1013.5
20260905022646 82 240 1.0 2.0 0.00 0.00 0.36 88 1013.2
20260905022146 82 211 1.0 2.0 0.00 0.00 0.36 88 1013.5
20260905021646 82 183 1.0 4.0 0.00 0.00 0.36 87 1013.2
20260905021146 83 187 2.0 4.0 0.00 0.00 0.36 87 1013.2
20260905020646 83 212 2.0 4.0 0.00 0.00 0.36 86 1013.2
20260905020146 83 201 1.0 3.0 0.00 0.00 0.36 85 1013.2
20260905015647 83 214 2.0 3.0 0.00 0.00 0.36 84 1013.2
20260905015146 83 187 2.0 2.0 0.00 0.00 0.36 84 1012.9
20260905014646 83 171 2.0 2.0 0.00 0.00 0.36 84 1012.9
20260905014146 83 180 1.0 2.0 0.00 0.00 0.36 83 1013.2
20260905013646 83 117 0.0 2.0 0.00 0.00 0.36 83 1012.9
20260905013146 84 162 1.0 2.0 0.00 0.00 0.36 82 1012.9
20260905012646 84 121 1.0 3.0 0.00 0.00 0.36 82 1012.9
20260905012146 84 179 2.0 2.0 0.00 0.00 0.36 81 1012.9
20260905011646 84 60 0.0 2.0 0.00 0.00 0.36 82 1012.9
20260905011146 84 22 0.0 1.0 0.00 0.00 0.36 82 1012.9
20260905010646 84 174 2.0 3.0 0.00 0.00 0.36 82 1012.9
20260905010146 84 181 2.0 2.0 0.00 0.00 0.36 82 1012.9
20260905005646 83 187 1.0 3.0 0.00 0.00 0.36 82 1012.9
20260905005147 84 189 2.0 3.0 0.00 0.00 0.36 82 1012.9
20260905004647 84 206 2.0 3.0 0.00 0.00 0.36 82 1012.9
20260905004147 84 186 1.0 3.0 0.00 0.00 0.36 83 1013.2
20260905003646 84 165 2.0 4.0 0.00 0.00 0.36 82 1012.9
20260905003146 84 156 3.0 3.0 0.00 0.00 0.36 81 1012.5
20260905002647 84 179 3.0 4.0 0.00 0.00 0.36 81 1012.9
20260905002146 84 172 2.0 5.0 0.00 0.00 0.36 81 1012.9
20260905001646 84 174 2.0 5.0 0.00 0.00 0.36 81 1012.9
20260905001146 84 145 2.0 5.0 0.00 0.00 0.36 81 1012.9
20260905000646 84 154 3.0 4.0 0.00 0.00 0.36 80 1012.9
20260905000147 84 165 3.0 6.0 0.00 0.00 0.36 81 1012.9
20260904235646 85 165 4.0 4.0 0.00 0.00 0.36 80 1012.9
20260904235146 86 157 1.0 4.0 0.00 0.00 0.36 78 1012.9
20260904234646 86 37 2.0 3.0 0.00 0.00 0.36 76 1012.9
20260904234146 86 334 2.0 3.0 0.00 0.00 0.36 76 1012.9
20260904233646 87 3 3.0 5.0 0.00 0.00 0.36 75 1012.5
20260904233146 87 351 2.0 4.0 0.00 0.00 0.36 75 1012.5
20260904232647 87 312 3.0 5.0 0.00 0.00 0.36 75 1012.5
20260904232146 87 286 4.0 4.0 0.00 0.00 0.36 73 1012.5
20260904231647 87 5 1.0 4.0 0.00 0.00 0.36 73 1012.5
20260904231146 87 354 2.0 5.0 0.00 0.00 0.36 73 1012.5
20260904230647 87 352 2.0 5.0 0.00 0.00 0.36 73 1012.5
20260904230147 88 347 4.0 7.0 0.00 0.00 0.36 71 1012.9
20260904225647 88 39 2.0 5.0 0.00 0.00 0.36 71 1012.5
20260904225146 88 321 2.0 5.0 0.00 0.00 0.36 70 1012.5
20260904224646 88 307 3.0 4.0 0.00 0.00 0.36 70 1012.5
20260904224147 88 76 2.0 6.0 0.00 0.00 0.36 72 1012.2
20260904223646 87 25 4.0 9.0 0.00 0.00 0.36 72 1012.5
20260904223147 87 353 4.0 7.0 0.00 0.00 0.36 73 1012.5
20260904222647 88 356 5.0 7.0 0.00 0.00 0.36 71 1012.5
20260904222147 88 347 3.0 6.0 0.00 0.00 0.36 69 1012.2
20260904221646 88 355 3.0 7.0 0.00 0.00 0.36 71 1012.2
20260904221146 87 332 4.0 6.0 0.00 0.00 0.36 73 1012.2
20260904220647 87 25 5.0 9.0 0.00 0.00 0.36 73 1012.2
20260904220146 87 343 5.0 7.0 0.00 0.00 0.36 72 1012.2
20260904215647 88 18 3.0 8.0 0.00 0.00 0.36 71 1012.2
20260904215146 87 335 4.0 9.0 0.00 0.00 0.36 72 1012.5
20260904214647 87 312 6.0 9.0 0.00 0.00 0.36 73 1012.5
20260904214146 87 45 3.0 7.0 0.00 0.00 0.36 72 1012.5
20260904213646 87 45 4.0 10.0 0.00 0.00 0.36 71 1012.2
20260904213146 87 337 3.0 7.0 0.00 0.00 0.36 70 1012.2
20260904212646 88 358 5.0 8.0 0.00 0.00 0.36 70 1012.5
20260904212146 88 340 5.0 8.0 0.00 0.00 0.36 70 1012.5
20260904211647 88 35 3.0 7.0 0.00 0.00 0.36 68 1012.5
20260904211147 88 3 3.0 10.0 0.00 0.00 0.36 68 1012.5
20260904210646 88 345 5.0 8.0 0.00 0.00 0.36 69 1012.9
20260904210146 88 354 4.0 7.0 0.00 0.00 0.36 71 1012.5
20260904205647 87 353 3.0 9.0 0.00 0.00 0.36 71 1012.2
20260904205147 88 342 4.0 8.0 0.00 0.00 0.36 72 1012.2
20260904204646 88 336 4.0 7.0 0.00 0.00 0.36 72 1012.5
20260904204146 87 348 4.0 7.0 0.00 0.00 0.36 71 1012.5
20260904203646 87 354 5.0 9.0 0.00 0.00 0.36 71 1012.5
20260904203146 87 39 5.0 8.0 0.00 0.00 0.36 73 1012.5
20260904202646 87 11 5.0 8.0 0.00 0.00 0.36 73 1012.5
20260904202148 87 345 3.0 8.0 0.00 0.00 0.36 72 1012.9
20260904201647 88 31 5.0 8.0 0.00 0.00 0.36 70 1012.9
20260904201146 88 356 6.0 6.0 0.00 0.00 0.36 69 1012.9
20260904200647 88 61 7.0 9.0 0.00 0.00 0.36 70 1012.9
20260904200146 88 339 2.0 7.0 0.00 0.00 0.36 70 1012.9
20260904195647 87 338 3.0 5.0 0.00 0.00 0.36 72 1012.9
20260904195147 87 4 4.0 9.0 0.00 0.00 0.36 73 1013.2
20260904194646 87 52 2.0 8.0 0.00 0.00 0.36 73 1012.9
20260904194146 87 323 3.0 9.0 0.00 0.00 0.36 74 1013.2
20260904193646 87 46 7.0 9.0 0.00 0.00 0.36 73 1013.2
20260904193146 86 5 3.0 8.0 0.00 0.00 0.36 75 1013.5
20260904192647 87 53 7.0 11.0 0.00 0.00 0.36 74 1013.5
20260904192147 86 48 7.0 9.0 0.00 0.00 0.36 76 1013.5
20260904191648 87 42 7.0 10.0 0.00 0.00 0.36 75 1013.5
20260904191147 87 32 7.0 9.0 0.00 0.00 0.36 74 1013.5
20260904190647 87 354 3.0 9.0 0.00 0.00 0.36 76 1013.9
20260904190147 86 30 5.0 8.0 0.00 0.00 0.36 77 1013.9
20260904185646 86 350 5.0 9.0 0.00 0.00 0.36 78 1013.9
20260904185146 86 16 6.0 9.0 0.00 0.00 0.36 78 1013.9
20260904184646 86 36 7.0 11.0 0.00 0.00 0.36 79 1014.2
20260904184147 86 336 7.0 9.0 0.00 0.00 0.36 78 1014.2
20260904183647 86 359 4.0 10.0 0.00 0.00 0.36 77 1014.2
20260904183146 86 350 7.0 11.0 0.00 0.00 0.36 79 1014.2
20260904182646 87 22 6.0 7.0 0.00 0.00 0.36 77 1014.2
20260904182147 86 20 5.0 10.0 0.00 0.00 0.36 76 1014.2
20260904181646 86 326 3.0 9.0 0.00 0.00 0.36 77 1014.2
20260904181147 87 336 5.0 10.0 0.00 0.00 0.36 74 1014.6
20260904180647 87 353 3.0 9.0 0.00 0.00 0.36 75 1014.6
20260904180148 86 11 8.0 9.0 0.00 0.00 0.36 77 1014.6
20260904175647 86 346 6.0 9.0 0.00 0.00 0.36 76 1014.6
20260904175147 85 20 4.0 10.0 0.00 0.00 0.36 77 1014.6
20260904174647 85 47 7.0 9.0 0.00 0.00 0.36 77 1014.6
20260904174148 84 8 4.0 7.0 0.00 0.00 0.36 80 1014.9
20260904173647 84 41 8.0 11.0 0.00 0.00 0.36 80 1014.6
20260904173147 84 21 6.0 8.0 0.00 0.00 0.36 81 1014.6
20260904172646 84 44 3.0 7.0 0.00 0.00 0.36 82 1014.6
20260904172146 84 33 6.0 8.0 0.00 0.00 0.36 81 1014.6
20260904171646 84 7 2.0 9.0 0.00 0.00 0.36 83 1014.6
20260904171146 84 24 7.0 11.0 0.00 0.00 0.36 83 1014.6
20260904170646 84 345 1.0 10.0 0.00 0.00 0.36 84 1014.9
20260904170147 84 11 4.0 8.0 0.00 0.00 0.36 83 1014.2
20260904165646 84 51 5.0 9.0 0.00 0.00 0.36 81 1014.6
20260904165147 84 8 3.0 5.0 0.00 0.00 0.36 82 1014.6
20260904164646 84 27 6.0 10.0 0.00 0.00 0.36 82 1014.6
20260904164146 84 38 6.0 8.0 0.00 0.00 0.36 81 1014.9
20260904163646 84 1 2.0 8.0 0.00 0.00 0.36 82 1014.9
20260904163146 84 29 5.0 7.0 0.00 0.00 0.36 82 1015.2
20260904162646 84 23 5.0 5.0 0.00 0.00 0.36 83 1015.2
20260904162146 84 36 4.0 9.0 0.00 0.00 0.36 83 1014.9
20260904161646 84 35 4.0 7.0 0.00 0.00 0.36 83 1015.2
20260904161147 84 33 4.0 6.0 0.00 0.00 0.36 83 1015.2
20260904160647 84 355 3.0 5.0 0.00 0.00 0.36 84 1015.2
20260904160146 83 348 2.0 6.0 0.00 0.00 0.36 84 1015.2
20260904155649 83 358 2.0 7.0 0.00 0.00 0.36 85 1015.2
20260904155146 83 324 5.0 8.0 0.00 0.00 0.36 84 1015.2
20260904154646 84 53 5.0 8.0 0.00 0.00 0.36 85 1015.2
20260904154149 83 16 5.0 5.0 0.00 0.00 0.36 86 1014.9
20260904153647 83 354 2.0 7.0 0.00 0.00 0.36 86 1014.9
20260904153149 83 20 3.0 5.0 0.00 0.00 0.36 88 1014.9
20260904152646 82 350 3.0 6.0 0.00 0.00 0.36 88 1014.9
20260904152146 82 350 3.0 6.0 0.00 0.00 0.36 88 1014.9
20260904151646 82 14 3.0 6.0 0.00 0.00 0.36 89 1015.2
20260904151147 82 360 3.0 6.0 0.00 0.00 0.36 89 1015.2
20260904150646 82 12 3.0 6.0 0.00 0.00 0.36 89 1015.2
20260904150146 82 350 2.0 7.0 0.00 0.00 0.36 88 1015.2
20260904145646 82 340 3.0 4.0 0.00 0.00 0.36 88 1015.2
20260904145146 82 46 4.0 5.0 0.00 0.00 0.36 87 1014.9
20260904144647 82 360 2.0 5.0 0.00 0.00 0.36 87 1014.9
20260904144148 81 4 3.0 5.0 0.00 0.00 0.36 88 1015.2
20260904143647 81 45 4.0 6.0 0.00 0.00 0.36 88 1014.9
20260904143146 81 48 4.0 5.0 0.00 0.00 0.36 89 1014.9
20260904142646 80 303 2.0 6.0 0.00 0.00 0.36 90 1014.9
20260904142146 80 61 4.0 5.0 0.00 0.00 0.36 90 1014.9
20260904141648 79 69 2.0 3.0 0.00 0.00 0.36 90 1014.9
20260904141146 80 70 3.0 4.0 0.00 0.00 0.36 90 1014.9
20260904140647 79 47 3.0 5.0 0.00 0.00 0.36 90 1014.6
20260904140147 79 96 1.0 4.0 0.00 0.00 0.36 90 1014.9
20260904135647 79 26 0.0 2.0 0.00 0.00 0.36 90 1014.9
20260904135146 78 67 2.0 4.0 0.00 0.00 0.36 90 1014.9
20260904134647 78 7 3.0 6.0 0.00 0.00 0.36 90 1014.6
20260904134147 78 100 3.0 5.0 0.00 0.00 0.36 91 1014.6
20260904133646 77 342 3.0 6.0 0.00 0.00 0.36 92 1014.2
20260904133147 77 340 7.0 10.0 0.00 0.00 0.36 92 1014.2
20260904132647 76 320 4.0 8.0 0.00 0.00 0.36 92 1014.2
20260904132146 76 298 5.0 6.0 0.00 0.00 0.36 92 1014.2
20260904131646 76 316 2.0 5.0 0.00 0.00 0.36 93 1014.2
20260904131147 76 305 4.0 6.0 0.00 0.00 0.36 92 1014.2
20260904130646 75 8 3.0 7.0 0.00 0.00 0.36 94 1014.2
20260904130146 75 317 1.0 4.0 0.00 0.00 0.36 94 1014.2
20260904125647 75 275 2.0 4.0 0.00 0.00 0.36 94 1014.2
20260904125147 75 314 3.0 5.0 0.00 0.00 0.36 94 1014.2
20260904124648 75 293 2.0 5.0 0.00 0.00 0.36 95 1014.2
20260904124147 75 294 2.0 3.0 0.02 0.00 0.36 95 1014.2
20260904123647 75 229 2.0 4.0 0.02 0.00 0.36 94 1014.2
20260904123146 75 282 3.0 5.0 0.00 0.00 0.36 94 1014.2
20260904122647 74 335 6.0 9.0 0.02 0.00 0.36 94 1014.2
20260904122147 74 339 7.0 9.0 0.05 0.00 0.36 95 1014.2
20260904121646 74 347 6.0 12.0 0.02 0.00 0.35 95 1014.2
20260904121148 74 349 3.0 7.0 0.02 0.00 0.35 94 1014.2
20260904120646 74 294 3.0 7.0 0.09 0.00 0.35 93 1013.9
20260904120147 74 357 5.0 8.0 0.14 0.00 0.35 93 1013.9
20260904115647 74 356 4.0 9.0 0.38 0.00 0.34 95 1013.9
20260904115148 74 25 7.0 9.0 0.83 0.00 0.32 94 1014.2
20260904114647 75 357 5.0 10.0 0.80 0.00 0.26 93 1013.9
20260904114146 75 17 5.0 10.0 0.71 0.00 0.18 95 1013.9
20260904113650 75 34 9.0 11.0 0.64 0.00 0.11 95 1013.5
20260904113146 75 59 2.0 9.0 0.26 0.00 0.04 90 1013.5
20260904112646 76 352 6.0 10.0 0.00 0.00 0.00 87 1013.5
20260904112146 76 7 5.0 9.0 0.00 0.00 0.00 87 1013.5
20260904111646 76 334 7.0 9.0 0.00 0.00 0.00 90 1013.5
20260904111146 77 315 5.0 10.0 0.00 0.00 0.00 90 1013.9
20260904110646 78 283 5.0 7.0 0.00 0.00 0.00 86 1013.9
20260904110148 79 328 5.0 8.0 0.00 0.00 0.00 84 1013.5
20260904105647 79 338 4.0 10.0 0.00 0.00 0.00 82 1013.5
20260904105146 80 325 8.0 13.0 0.00 0.00 0.00 86 1013.5
20260904104647 80 352 4.0 6.0 0.00 0.00 0.00 94 1013.5
20260904104146 80 315 0.0 2.0 0.00 0.00 0.00 95 1013.5
20260904103647 80 248 2.0 4.0 0.00 0.00 0.00 94 1013.2
20260904103148 80 273 2.0 2.0 0.00 0.00 0.00 95 1013.2
20260904102647 80 301 1.0 2.0 0.00 0.00 0.00 95 1012.9
20260904102146 80 237 2.0 3.0 0.00 0.00 0.00 95 1012.9
20260904101647 80 213 2.0 3.0 0.00 0.00 0.00 95 1012.9
20260904101147 80 193 2.0 3.0 0.00 0.00 0.00 94 1013.2
20260904100646 80 208 2.0 3.0 0.00 0.00 0.00 94 1012.9
20260904100147 80 198 2.0 3.0 0.00 0.00 0.00 94 1012.9
20260904095646 80 195 2.0 3.0 0.00 0.00 0.00 93 1012.9
20260904095148 81 214 0.0 2.0 0.00 0.00 0.00 93 1012.9
20260904094647 81 297 1.0 1.0 0.00 0.00 0.00 93 1012.5
20260904094146 81 246 1.0 2.0 0.00 0.00 0.00 93 1012.9
20260904093646 80 287 1.0 3.0 0.00 0.00 0.00 93 1012.9
20260904093147 80 281 0.0 3.0 0.00 0.00 0.00 93 1012.9
20260904092646 80 214 0.0 3.0 0.00 0.00 0.00 93 1012.5
20260904092147 80 220 2.0 3.0 0.00 0.00 0.00 92 1012.9
20260904091647 80 267 2.0 3.0 0.00 0.00 0.00 93 1012.9
20260904091147 80 300 2.0 3.0 0.00 0.00 0.00 92 1012.9
20260904090647 80 310 2.0 3.0 0.00 0.00 0.00 92 1012.9
20260904090146 80 300 2.0 3.0 0.00 0.00 0.00 92 1012.9
20260904085647 80 285 3.0 3.0 0.00 0.00 0.00 93 1012.9
20260904085146 80 275 2.0 4.0 0.00 0.00 0.00 93 1012.9
20260904084647 80 282 3.0 3.0 0.00 0.00 0.00 93 1012.9
20260904084147 80 312 1.0 3.0 0.00 0.00 0.00 93 1012.9
20260904083646 81 287 2.0 2.0 0.00 0.00 0.00 93 1012.9
20260904083146 81 272 3.0 3.0 0.00 0.00 0.00 93 1013.2
20260904082646 80 258 0.0 2.0 0.00 0.00 0.00 93 1012.9
20260904082146 80 293 2.0 2.0 0.00 0.00 0.00 93 1012.9
20260904081648 80 341 0.0 1.0 0.00 0.00 0.00 93 1013.2
20260904081146 80 326 0.0 1.0 0.00 0.00 0.00 93 1013.2
20260904080646 80 224 0.0 0.0 0.00 0.00 0.00 93 1012.9
20260904080146 80 224 0.0 0.0 0.00 0.00 0.00 93 1013.2
20260904075646 80 229 0.0 2.0 0.00 0.00 0.00 93 1012.9
20260904075146 80 231 1.0 2.0 0.00 0.00 0.00 93 1012.9
20260904074646 80 193 0.0 2.0 0.00 0.00 0.00 93 1013.2
20260904074148 80 234 1.0 2.0 0.00 0.00 0.00 93 1013.2
20260904073647 80 234 2.0 2.0 0.00 0.00 0.00 93 1013.2
20260904073147 81 210 0.0 1.0 0.00 0.00 0.00 93 1012.9
20260904072646 81 304 0.0 0.0 0.00 0.00 0.00 93 1012.9
20260904072148 80 329 0.0 2.0 0.00 0.00 0.00 93 1013.2
20260904071647 80 230 0.0 0.0 0.00 0.00 0.00 93 1012.9
20260904071147 80 246 0.0 1.0 0.00 0.00 0.00 93 1012.9
20260904070646 80 218 1.0 2.0 0.00 0.00 0.00 93 1013.2
20260904070146 80 237 1.0 2.0 0.00 0.00 0.00 94 1013.2
20260904065647 80 185 0.0 2.0 0.00 0.00 0.00 93 1013.2
20260904065146 80 224 0.0 0.0 0.00 0.00 0.00 93 1013.2
20260904064647 80 222 0.0 1.0 0.00 0.00 0.00 93 1013.2
20260904064146 81 255 0.0 1.0 0.00 0.00 0.00 93 1013.2
20260904063648 80 315 0.0 1.0 0.00 0.00 0.00 93 1013.2
20260904063147 80 224 0.0 0.0 0.00 0.00 0.00 93 1013.2
20260904062647 80 224 0.0 1.0 0.00 0.00 0.00 93 1013.2
20260904062146 80 218 0.0 1.0 0.00 0.00 0.00 93 1013.2
20260904061647 80 242 0.0 0.0 0.00 0.00 0.00 93 1013.2
20260904061148 80 135 0.0 0.0 0.00 0.00 0.00 93 1013.2
20260904060646 80 135 0.0 1.0 0.00 0.00 0.00 93 1013.2
20260904060147 80 32 0.0 1.0 0.00 0.00 0.00 93 1013.5
20260904055647 81 142 0.0 0.0 0.00 0.00 0.00 92 1013.2
20260904055146 81 142 0.0 0.0 0.00 0.00 0.00 92 1013.2
20260904054646 81 195 0.0 1.0 0.00 0.00 0.00 92 1013.2
20260904054146 81 190 1.0 1.0 0.00 0.00 0.00 92 1013.2
20260904053646 81 224 1.0 2.0 0.00 0.00 0.00 92 1013.2
20260904053147 81 184 0.0 1.0 0.00 0.00 0.00 91 1013.2